Regional Weather Roundup
Issued by NWS

Home | Current Version | Previous Version | Text Only | Print | Product List | Glossary On
Versions: 1 2 3 4 5 6 7 8 9 10 11 12 13 14 15 16 17 18 19 20 21 22 23 24 25 26 27 28 29 30 31 32 33 34 35 36 37 38 39 40 41 42 43 44 45 46 47 48 49 50
000
ASUS46 KSTO 220404
RWRCA

NORTHERN AND CENTRAL CA REGIONAL WEATHER ROUNDUP
NATIONAL WEATHER SERVICE SACRAMENTO CA
900 PM PDT THU AUG 21 2014

NOTE: FAIR INDICATES FEW OR NO CLOUDS BELOW 12,000 FEET WITH NO
SIGNIFICANT WEATHER AND/OR OBSTRUCTIONS TO VISIBILITY.

CAZ001-003-220500-
NORTHWEST AREA

CITY           SKY/WX    TMP DP  RH WIND       PRES   REMARKS
CRESCENT CITY  CLEAR     58  54  86 CALM      30.02R
UKIAH          CLEAR     76  48  37 CALM      29.89S
$$

CAZ006-505>513-220500-
BAY AREA

CITY           SKY/WX    TMP DP  RH WIND       PRES   REMARKS
SANTA ROSA     CLEAR     62  56  80 SE10      29.90R
SAN RAFAEL     N/A       80  MM  MM MISG
NAPA           CLEAR     65  59  81 SW8       29.90R
CONCORD        CLEAR     72  56  57 SW7       29.89S
OAKLAND CITY   N/A       70  MM  MM MISG
OAKLAND        PTCLDY    64  57  78 NW8       29.93R
SAN FRAN CITY  N/A       61  MM  84 MISG
SAN FRAN ARPT  PTCLDY    63  59  87 NW14      29.92S
LIVERMORE      CLEAR     70  55  59 W10       29.90R
HAYWARD        CLEAR     65  61  87 NW7       29.92S
REDWOOD CITY   N/A       MM  MM  MM MISG
MOFFETT ARPT   CLEAR     66  60  81 NW10      29.93R
SAN JOSE ARPT  CLEAR     67  59  75 W13       29.92R
$$
CAZ034-037-514>518-220500-
CENTRAL COAST

CITY           SKY/WX    TMP DP  RH WIND       PRES   REMARKS
WATSONVILLE    CLOUDY    63  58  83 SW3       29.95S
SALINAS        CLOUDY    63  57  81 NW8       29.95R
MONTEREY       CLOUDY    60  57  89 SW5       29.96R
SAN LUIS OBISP CLEAR     62  58  86 NW5       29.95R
SANTA MARIA    CLEAR     63  57  81 CALM      29.95R
$$
CAZ015-016-220500-
NORTHERN SACRAMENTO VALLEY

CITY           SKY/WX    TMP DP  RH WIND       PRES   REMARKS
REDDING        CLEAR     82  56  40 SE5       29.83R
RED BLUFF      PTCLDY    82  57  42 S6        29.84R
OROVILLE       CLEAR     80  55  42 SE6       29.86R
$$
CAZ016>018-220500-
SOUTHERN SACRAMENTO VALLEY

CITY           SKY/WX    TMP DP  RH WIND       PRES   REMARKS
AUBURN         PTCLDY    77  54  44 S3        29.94R
BEALE AFB      CLEAR     77  59  53 SE3       29.84R
LINCOLN        FAIR      77  52  41 S7        29.85R
MARYSVILLE     CLEAR     80  55  42 S5        29.84R
SAC INTL ARPT  CLEAR     77  58  51 S13       29.85R
MATHER AIRPORT CLEAR     77  55  47 S7        29.86S
DOWNTOWN SAC   N/A       80  MM  MM MISG
SAC EXEC ARPT  CLEAR     77  59  53 S8        29.86R
VACAVILLE      CLEAR     75  56  51 S7        29.86R
TRAVIS AFB     CLEAR     70  60  69 SW16      29.85R
$$
CAZ019>021-220500-
SAN JOAQUIN VALLEY

CITY           SKY/WX    TMP DP  RH WIND       PRES   REMARKS
STOCKTON       CLEAR     79  56  45 NW8       29.87R
MODESTO        CLEAR     82  59  45 NW8       29.85S
MERCED         CLEAR     83  57  41 NW9       29.85R
LEMOORE        CLEAR     82  54  37 NW12      29.85R
FRESNO         CLEAR     88  53  30 W8        29.85R
HANFORD        CLEAR     86  55  34 NW8       29.84R
PORTERVILLE    CLEAR     82  57  42 W5        29.86S
BAKERSFIELD    CLEAR     85  51  31 NW3       29.85S
$$
CAZ011-012-071-220500-
NORTHERN MOUNTAINS

CITY           SKY/WX    TMP DP  RH WIND       PRES   REMARKS
YREKA          CLEAR     72  32  23 NE8       29.97R
MOUNT SHASTA   CLOUDY    66  38  35 CALM      30.00R HAZE
ALTURAS        CLEAR     73  28  18 NW14      30.02R
$$
CAZ011-012-071-220500-
SIERRA NEVADA MTNS

CITY           SKY/WX    TMP DP  RH WIND       PRES   REMARKS
BLUE CANYON    PTCLDY    64  37  36 CALM      30.16S
TRUCKEE        CLEAR     55  36  47 W3        30.19R
TAHOE VLY ARPT CLEAR     63  39  41 SW3       30.19R
MAMMOTH LAKES  FAIR      61  36  39 CALM      30.21R
$$



USA.gov is the U.S. government's official web portal to all federal, state and local government web resources and services.